GW3140 Weather Reports


Display with metric or nautical units.
time (UTC)temp
F
wind
direction
speed
MPH
gust
MPH
rain 1hr
in
rain 24hr
in
rain mn
in
humidity
%
barometer
mb
20260509045014 47 135 0.0 4.0 0.00 0.00 0.00 79 1008.0
20260509044530 47 124 0.0 3.0 0.00 0.00 0.00 79 1008.1
20260509044015 47 151 1.0 4.0 0.00 0.00 0.00 79 1008.2
20260509043512 47 163 1.0 4.0 0.00 0.00 0.00 79 1008.2
20260509043029 47 161 0.0 3.0 0.00 0.00 0.00 78 1008.2
20260509042512 47 141 0.0 3.0 0.00 0.00 0.00 78 1008.3
20260509042011 47 198 1.0 6.0 0.00 0.00 0.00 78 1008.3
20260509041531 47 128 1.0 6.0 0.00 0.00 0.00 78 1008.4
20260509041011 47 141 1.0 6.0 0.00 0.00 0.00 77 1008.4
20260509040513 47 0 1.0 5.0 0.00 0.00 0.00 77 1008.4
20260509040032 47 0 0.0 6.0 0.00 0.00 0.00 76 1008.5
20260509035511 47 185 1.0 6.0 0.00 0.00 0.00 76 1008.6
20260509035012 48 198 1.0 9.0 0.00 0.00 0.00 76 1008.6
20260509034530 48 180 1.0 9.0 0.00 0.00 0.00 76 1008.7
20260509034011 48 206 0.0 3.0 0.00 0.00 0.00 75 1008.7
20260509033514 48 162 0.0 3.0 0.00 0.00 0.00 75 1008.7
20260509033030 48 0 0.0 3.0 0.00 0.00 0.00 74 1008.7
20260509032513 48 0 0.0 4.0 0.00 0.00 0.00 74 1008.7
20260509032014 49 0 0.0 4.0 0.00 0.00 0.00 73 1008.8
20260509031533 49 0 0.0 3.0 0.00 0.00 0.00 73 1008.9
20260509031012 49 0 0.0 6.0 0.00 0.00 0.00 73 1008.9
20260509030512 49 0 0.0 6.0 0.00 0.00 0.00 73 1009.0
20260509030030 49 95 2.0 9.0 0.00 0.00 0.00 73 1009.0
20260509025513 50 189 1.0 9.0 0.00 0.00 0.00 73 1009.1
20260509025014 50 164 2.0 6.0 0.00 0.00 0.00 73 1009.1
20260509024530 50 149 1.0 6.0 0.00 0.00 0.00 73 1009.1
20260509024013 50 0 1.0 5.0 0.00 0.00 0.00 73 1009.2
20260509023517 50 175 0.0 4.0 0.00 0.00 0.00 71 1009.2
20260509023037 50 152 1.0 4.0 0.00 0.00 0.00 71 1009.2
20260509022512 50 155 1.0 4.0 0.00 0.00 0.00 70 1009.2
20260509022011 49 164 1.0 4.0 0.00 0.00 0.00 68 1009.2
20260509021534 49 175 1.0 4.0 0.00 0.00 0.00 67 1009.2
20260509021016 49 128 1.0 4.0 0.00 0.00 0.00 66 1009.1
20260509020513 50 189 1.0 4.0 0.00 0.00 0.00 66 1009.2
20260509020035 50 180 1.0 3.0 0.00 0.00 0.00 65 1009.1
20260509015513 50 0 0.0 3.0 0.00 0.00 0.00 64 1009.1
20260509015012 50 0 0.0 2.0 0.00 0.00 0.00 64 1009.0
20260509014542 50 0 0.0 1.0 0.00 0.00 0.00 63 1008.9
20260509014013 50 0 0.0 2.0 0.00 0.00 0.00 62 1008.8
20260509013511 50 0 0.0 3.0 0.00 0.00 0.00 62 1008.8
20260509013035 51 0 0.0 3.0 0.00 0.00 0.00 61 1008.8
20260509012512 51 0 0.0 3.0 0.00 0.00 0.00 61 1008.7
20260509012012 51 0 0.0 3.0 0.00 0.00 0.00 60 1008.7
20260509011529 51 185 0.0 3.0 0.00 0.00 0.00 59 1008.7
20260509011013 51 161 0.0 5.0 0.00 0.00 0.00 58 1008.7
20260509010514 51 0 0.0 5.0 0.00 0.00 0.00 57 1008.6
20260509010032 52 175 2.0 5.0 0.00 0.00 0.00 56 1008.6
20260509005516 52 0 1.0 5.0 0.00 0.00 0.00 55 1008.6
20260509005013 52 165 1.0 5.0 0.00 0.00 0.00 55 1008.5
20260509004530 52 204 1.0 6.0 0.00 0.00 0.00 55 1008.6
20260509004017 53 131 2.0 6.0 0.00 0.00 0.00 55 1008.5
20260509003513 53 172 2.0 6.0 0.00 0.00 0.00 53 1008.5
20260509003034 53 165 2.0 6.0 0.00 0.00 0.00 54 1008.4
20260509002513 53 213 2.0 6.0 0.00 0.00 0.00 53 1008.5
20260509002013 54 160 1.0 6.0 0.00 0.00 0.00 53 1008.5
20260509001530 54 192 2.0 6.0 0.00 0.00 0.00 53 1008.5
20260509001012 54 168 2.0 6.0 0.00 0.00 0.00 53 1008.5
20260509000513 55 158 1.0 6.0 0.00 0.00 0.00 53 1008.5
20260509000029 55 151 1.0 5.0 0.00 0.00 0.00 53 1008.5
20260508235513 55 0 0.0 5.0 0.00 0.00 0.00 54 1008.6
20260508235013 55 159 1.0 9.0 0.00 0.00 0.00 53 1008.5
20260508234528 56 0 1.0 9.0 0.00 0.00 0.00 52 1008.5
20260508234010 56 196 3.0 8.0 0.00 0.00 0.00 52 1008.6
20260508233510 56 189 3.0 5.0 0.00 0.00 0.00 52 1008.5
20260508233034 56 163 2.0 5.0 0.00 0.00 0.00 52 1008.4
20260508232511 56 172 2.0 5.0 0.00 0.00 0.00 53 1008.5
20260508232013 56 191 1.0 6.0 0.00 0.00 0.00 51 1008.5
20260508231533 57 185 2.0 6.0 0.00 0.00 0.00 52 1008.5
20260508231012 57 180 2.0 8.0 0.00 0.00 0.00 49 1008.4
20260508230512 57 161 3.0 10.0 0.00 0.00 0.00 51 1008.5
20260508230029 57 160 2.0 10.0 0.00 0.00 0.00 51 1008.5
20260508225511 57 185 4.0 10.0 0.00 0.00 0.00 49 1008.5
20260508225013 57 170 1.0 10.0 0.00 0.00 0.00 49 1008.4
20260508224530 57 189 3.0 10.0 0.00 0.00 0.00 48 1008.5
20260508224012 57 138 3.0 10.0 0.00 0.00 0.00 48 1008.5
20260508223514 57 172 3.0 12.0 0.00 0.00 0.00 48 1008.6
20260508223029 56 166 4.0 12.0 0.00 0.00 0.00 50 1008.6
20260508222512 56 191 2.0 9.0 0.00 0.00 0.00 51 1008.7
20260508222017 56 189 3.0 9.0 0.00 0.00 0.00 48 1008.7
20260508221528 56 216 4.0 12.0 0.00 0.00 0.00 49 1008.7
20260508221012 56 211 3.0 12.0 0.00 0.00 0.00 49 1008.8
20260508220514 57 170 3.0 10.0 0.00 0.00 0.00 48 1008.7
20260508220032 57 95 4.0 11.0 0.00 0.00 0.00 48 1008.7
20260508215512 58 164 3.0 11.0 0.00 0.00 0.00 46 1008.6
20260508215012 58 167 4.0 10.0 0.00 0.00 0.00 47 1008.6
20260508214529 59 202 4.0 10.0 0.00 0.00 0.00 45 1008.6
20260508214015 59 156 4.0 10.0 0.00 0.00 0.00 48 1008.6
20260508213509 58 148 2.0 10.0 0.00 0.00 0.00 48 1008.6
20260508213034 58 227 4.0 10.0 0.00 0.00 0.00 47 1008.6
20260508212512 58 162 2.0 8.0 0.00 0.00 0.00 45 1008.6
20260508212012 59 227 3.0 8.0 0.00 0.00 0.00 45 1008.6
20260508211536 59 224 2.0 7.0 0.00 0.00 0.00 42 1008.5
20260508211013 60 197 2.0 11.0 0.00 0.00 0.00 42 1008.7
20260508210510 60 225 3.0 11.0 0.00 0.00 0.00 39 1008.7
20260508210029 60 175 3.0 9.0 0.00 0.00 0.00 40 1008.6
20260508205510 60 211 2.0 9.0 0.00 0.00 0.00 34 1008.6
20260508205010 60 231 2.0 9.0 0.00 0.00 0.00 32 1008.7
20260508204528 60 209 1.0 11.0 0.00 0.00 0.00 31 1008.8
20260508204011 61 273 1.0 11.0 0.00 0.00 0.00 31 1008.8
20260508203510 61 282 2.0 7.0 0.00 0.00 0.00 30 1008.9
20260508203030 61 190 1.0 7.0 0.00 0.00 0.00 32 1008.9
20260508202509 61 252 2.0 9.0 0.00 0.00 0.00 29 1008.9
20260508202014 60 283 3.0 9.0 0.00 0.00 0.00 30 1008.9
20260508201530 60 264 2.0 8.0 0.00 0.00 0.00 28 1009.0
20260508201011 60 150 2.0 5.0 0.00 0.00 0.00 28 1009.1
20260508200511 61 314 1.0 5.0 0.00 0.00 0.00 30 1009.2
20260508200038 61 260 1.0 5.0 0.00 0.00 0.00 26 1009.1
20260508195511 60 166 2.0 8.0 0.00 0.00 0.00 28 1009.2
20260508195013 60 143 2.0 8.0 0.00 0.00 0.00 30 1009.3
20260508194530 60 17 2.0 7.0 0.00 0.00 0.00 30 1009.4
20260508194010 59 19 1.0 5.0 0.00 0.00 0.00 26 1009.4
20260508193511 59 0 1.0 4.0 0.00 0.00 0.00 25 1009.5
20260508193030 59 37 1.0 6.0 0.00 0.00 0.00 31 1009.6
20260508192511 59 8 2.0 6.0 0.00 0.00 0.00 29 1009.7
20260508192010 59 354 2.0 6.0 0.00 0.00 0.00 28 1009.7
20260508191537 60 255 1.0 20.0 0.00 0.00 0.00 28 1009.8
20260508191011 60 354 6.0 20.0 0.00 0.00 0.00 32 1009.9
20260508190510 59 248 1.0 5.0 0.00 0.00 0.00 25 1009.8
20260508190030 59 28 1.0 5.0 0.00 0.00 0.00 27 1009.9
20260508185509 59 207 2.0 6.0 0.00 0.00 0.00 26 1010.0
20260508185011 59 279 3.0 6.0 0.00 0.00 0.00 27 1010.1
20260508184532 59 296 1.0 8.0 0.00 0.00 0.00 30 1010.0
20260508184012 59 202 2.0 8.0 0.00 0.00 0.00 29 1010.1
20260508183511 59 150 2.0 9.0 0.00 0.00 0.00 28 1010.1
20260508183031 59 345 4.0 9.0 0.00 0.00 0.00 28 1010.2
20260508182515 59 308 3.0 11.0 0.00 0.00 0.00 30 1010.3
20260508182010 59 298 2.0 11.0 0.00 0.00 0.00 33 1010.4
20260508181531 59 266 3.0 9.0 0.00 0.00 0.00 28 1010.4
20260508181010 59 149 0.0 7.0 0.00 0.00 0.00 33 1010.3
20260508180512 59 297 2.0 7.0 0.00 0.00 0.00 33 1010.6
20260508180028 59 279 2.0 7.0 0.00 0.00 0.00 33 1010.5
20260508175510 58 208 2.0 8.0 0.00 0.00 0.00 40 1010.6
20260508175009 58 348 1.0 8.0 0.00 0.00 0.00 30 1010.6
20260508174529 58 269 3.0 8.0 0.00 0.00 0.00 33 1010.8
20260508174013 58 351 3.0 8.0 0.00 0.00 0.00 35 1010.7
20260508173513 58 341 4.0 8.0 0.00 0.00 0.00 34 1010.8
20260508173030 58 346 3.0 9.0 0.00 0.00 0.00 34 1010.9
20260508172512 58 185 3.0 9.0 0.00 0.00 0.00 30 1011.0
20260508172012 58 250 3.0 7.0 0.00 0.00 0.00 31 1011.0
20260508171532 58 292 2.0 6.0 0.00 0.00 0.00 36 1011.0
20260508171023 57 348 2.0 7.0 0.00 0.00 0.00 35 1011.0
20260508170514 57 293 2.0 8.0 0.00 0.00 0.00 36 1011.1
20260508170038 57 248 3.0 8.0 0.00 0.00 0.00 31 1011.0
20260508165512 57 245 1.0 8.0 0.00 0.00 0.00 36 1011.1
20260508165014 57 171 3.0 8.0 0.00 0.00 0.00 34 1011.1
20260508164530 57 246 3.0 8.0 0.00 0.00 0.00 32 1011.1
20260508164015 57 254 2.0 7.0 0.00 0.00 0.00 35 1011.2
20260508163511 56 0 1.0 7.0 0.00 0.00 0.00 35 1011.3
20260508163033 56 202 1.0 9.0 0.00 0.00 0.00 41 1011.4
20260508162513 55 197 1.0 9.0 0.00 0.00 0.00 41 1011.5
20260508162014 55 231 3.0 9.0 0.00 0.00 0.00 37 1011.5
20260508161538 55 245 3.0 8.0 0.00 0.00 0.00 37 1011.6
20260508161014 55 348 2.0 8.0 0.00 0.00 0.00 35 1011.7
20260508160514 55 155 1.0 9.0 0.00 0.00 0.00 39 1011.6
20260508160029 55 279 2.0 9.0 0.00 0.00 0.00 40 1011.8
20260508155515 55 0 2.0 7.0 0.00 0.00 0.00 39 1011.7
20260508155012 55 238 2.0 7.0 0.00 0.00 0.00 47 1011.8
20260508154541 55 326 2.0 8.0 0.00 0.00 0.00 48 1011.8
20260508154013 55 266 2.0 8.0 0.00 0.00 0.00 39 1011.9
20260508153511 54 241 2.0 6.0 0.00 0.00 0.00 44 1011.9
20260508153030 54 340 1.0 4.0 0.00 0.00 0.00 50 1011.9
20260508152513 54 275 1.0 7.0 0.00 0.00 0.00 48 1011.9
20260508152014 53 247 2.0 7.0 0.00 0.00 0.00 45 1012.1
20260508151534 53 245 2.0 7.0 0.00 0.00 0.00 46 1012.0
20260508151013 53 272 2.0 6.0 0.00 0.00 0.00 46 1012.0
20260508150514 53 202 1.0 6.0 0.00 0.00 0.00 44 1012.0
20260508150030 53 304 2.0 5.0 0.00 0.00 0.00 45 1012.0
20260508145513 52 347 2.0 7.0 0.00 0.00 0.00 50 1011.9
20260508145011 52 244 1.0 7.0 0.00 0.00 0.00 47 1012.1
20260508144528 52 281 3.0 7.0 0.00 0.00 0.00 46 1012.2
20260508144013 52 283 2.0 7.0 0.00 0.00 0.00 46 1012.1
20260508143514 52 280 1.0 7.0 0.00 0.00 0.00 50 1012.1
20260508143116 52 168 0.0 7.0 0.00 0.00 0.00 51 1012.2
20260508142511 51 251 3.0 7.0 0.00 0.00 0.00 52 1012.2
20260508142009 51 245 1.0 6.0 0.00 0.00 0.00 54 1012.2
20260508141528 50 272 1.0 7.0 0.00 0.00 0.00 47 1012.3
20260508141010 50 259 1.0 7.0 0.00 0.00 0.00 52 1012.3
20260508140510 50 233 2.0 7.0 0.00 0.00 0.00 54 1012.2
20260508140036 50 196 1.0 5.0 0.00 0.00 0.00 55 1012.2
20260508135510 50 299 1.0 4.0 0.00 0.00 0.00 57 1012.3
20260508135011 50 175 1.0 4.0 0.00 0.00 0.00 57 1012.3
20260508134532 50 274 1.0 6.0 0.00 0.00 0.00 59 1012.5
20260508134010 50 314 2.0 6.0 0.00 0.00 0.00 62 1012.4
20260508133514 49 273 2.0 6.0 0.00 0.00 0.00 63 1012.4
20260508133028 49 312 2.0 6.0 0.00 0.00 0.00 61 1012.4
20260508132512 49 338 2.0 4.0 0.00 0.00 0.00 66 1012.3
20260508132011 48 247 1.0 4.0 0.00 0.00 0.00 64 1012.4
20260508131528 48 245 1.0 4.0 0.00 0.00 0.00 65 1012.3
20260508131010 48 305 0.0 4.0 0.00 0.00 0.00 68 1012.3
20260508130511 48 297 1.0 4.0 0.00 0.00 0.00 63 1012.3
20260508130041 47 310 1.0 4.0 0.00 0.00 0.00 67 1012.2
20260508125512 47 266 1.0 6.0 0.00 0.00 0.00 68 1012.1
20260508125012 46 270 1.0 6.0 0.00 0.00 0.00 71 1012.1
20260508124534 46 274 1.0 4.0 0.00 0.00 0.00 72 1012.0
20260508124015 45 271 1.0 4.0 0.00 0.00 0.00 74 1012.0
20260508123512 45 185 0.0 3.0 0.00 0.00 0.00 75 1012.0
20260508123035 44 277 1.0 4.0 0.00 0.00 0.00 77 1012.1
20260508122511 43 189 1.0 4.0 0.00 0.00 0.00 77 1012.1
20260508122011 43 171 2.0 4.0 0.00 0.00 0.00 77 1012.1
20260508121533 42 272 0.0 3.0 0.00 0.00 0.00 78 1012.0
20260508121010 42 0 0.0 3.0 0.00 0.00 0.00 79 1011.9
20260508120513 41 208 0.0 2.0 0.00 0.00 0.00 80 1011.9
20260508120029 41 0 0.0 0.0 0.00 0.00 0.00 80 1011.9
20260508115510 40 0 0.0 0.0 0.00 0.00 0.00 82 1012.0
20260508115010 40 0 0.0 0.0 0.00 0.00 0.00 82 1011.9
20260508114528 39 0 0.0 0.0 0.00 0.00 0.00 83 1011.9
20260508114009 38 0 0.0 0.0 0.00 0.00 0.00 85 1012.0
20260508113512 38 0 0.0 0.0 0.00 0.00 0.00 87 1011.8
20260508113028 38 0 0.0 0.0 0.00 0.00 0.00 87 1011.7
20260508112516 37 0 0.0 0.0 0.00 0.00 0.00 88 1011.7
20260508112015 37 0 0.0 0.0 0.00 0.00 0.00 88 1011.7
20260508111529 37 0 0.0 0.0 0.00 0.00 0.00 88 1011.6
20260508111016 37 0 0.0 0.0 0.00 0.00 0.00 87 1011.7
20260508110514 37 0 0.0 0.0 0.00 0.00 0.00 87 1011.7
20260508110036 37 0 0.0 0.0 0.00 0.00 0.00 87 1011.6
20260508105513 37 0 0.0 0.0 0.00 0.00 0.00 87 1011.6
20260508105013 37 0 0.0 0.0 0.00 0.00 0.00 87 1011.6
20260508104532 37 0 0.0 0.0 0.00 0.00 0.00 86 1011.6
20260508104014 37 0 0.0 0.0 0.00 0.00 0.00 85 1011.6
20260508103513 37 0 0.0 0.0 0.00 0.00 0.00 85 1011.5
20260508103038 37 0 0.0 0.0 0.00 0.00 0.00 84 1011.5
20260508102512 38 0 0.0 0.0 0.00 0.00 0.00 84 1011.5
20260508102014 38 0 0.0 0.0 0.00 0.00 0.00 84 1011.5
20260508101538 38 0 0.0 0.0 0.00 0.00 0.00 84 1011.6
20260508101011 38 0 0.0 0.0 0.00 0.00 0.00 84 1011.5
20260508100513 38 0 0.0 0.0 0.00 0.00 0.00 84 1011.5
20260508100029 39 0 0.0 0.0 0.00 0.00 0.00 84 1011.6
20260508095513 39 0 0.0 0.0 0.00 0.00 0.00 84 1011.6
20260508095013 39 0 0.0 0.0 0.00 0.00 0.00 84 1011.6
20260508094543 39 0 0.0 0.0 0.00 0.00 0.00 83 1011.6
20260508094014 40 0 0.0 0.0 0.00 0.00 0.00 83 1011.6
20260508093513 40 0 0.0 0.0 0.00 0.00 0.00 83 1011.5
20260508093031 40 0 0.0 0.0 0.00 0.00 0.00 83 1011.6
20260508092517 40 0 0.0 0.0 0.00 0.00 0.00 83 1011.5
20260508092013 40 0 0.0 0.0 0.00 0.00 0.00 83 1011.5
20260508091547 40 0 0.0 0.0 0.00 0.00 0.00 83 1011.5
20260508091014 40 0 0.0 0.0 0.00 0.00 0.00 84 1011.4
20260508090514 41 0 0.0 0.0 0.00 0.00 0.00 84 1011.5
20260508090042 41 0 0.0 0.0 0.00 0.00 0.00 85 1011.5
20260508085517 41 0 0.0 2.0 0.00 0.00 0.00 85 1011.4
20260508085014 41 0 0.0 2.0 0.00 0.00 0.00 85 1011.4
20260508084530 41 256 0.0 2.0 0.00 0.00 0.00 85 1011.6
20260508084013 41 0 0.0 0.0 0.00 0.00 0.00 84 1011.7
20260508083514 41 0 0.0 0.0 0.00 0.00 0.00 84 1011.5
20260508083029 41 0 0.0 0.0 0.00 0.00 0.00 83 1011.5
20260508082517 41 0 0.0 0.0 0.00 0.00 0.00 82 1011.4
20260508082012 41 0 0.0 0.0 0.00 0.00 0.00 80 1011.5
20260508081538 41 0 0.0 0.0 0.00 0.00 0.00 81 1011.3
20260508081017 41 0 0.0 0.0 0.00 0.00 0.00 81 1011.3
20260508080514 41 0 0.0 0.0 0.00 0.00 0.00 81 1011.4
20260508080032 41 0 0.0 0.0 0.00 0.00 0.00 83 1011.4
20260508075513 41 0 0.0 2.0 0.00 0.00 0.00 83 1011.3
20260508075013 41 0 0.0 2.0 0.00 0.00 0.00 84 1011.3
20260508074531 41 285 0.0 2.0 0.00 0.00 0.00 83 1011.4
20260508074012 41 0 0.0 0.0 0.00 0.00 0.00 84 1011.4
20260508073514 41 0 0.0 0.0 0.00 0.00 0.00 82 1011.5
20260508073034 41 0 0.0 0.0 0.00 0.00 0.00 81 1011.5
20260508072514 41 0 0.0 0.0 0.00 0.00 0.00 82 1011.6
20260508072012 41 0 0.0 0.0 0.00 0.00 0.00 82 1011.6
20260508071535 41 0 0.0 0.0 0.00 0.00 0.00 82 1011.7
20260508071011 41 0 0.0 0.0 0.00 0.00 0.00 82 1011.7
20260508070514 41 0 0.0 0.0 0.00 0.00 0.00 82 1011.8
20260508070048 41 0 0.0 0.0 0.00 0.00 0.00 82 1011.7
20260508065517 41 0 0.0 0.0 0.00 0.00 0.00 81 1011.8
20260508065014 41 0 0.0 0.0 0.00 0.00 0.00 82 1011.9
20260508064535 41 0 0.0 0.0 0.00 0.00 0.00 82 1011.9
20260508064017 41 0 0.0 2.0 0.00 0.00 0.00 83 1012.0
20260508063512 41 0 0.0 2.0 0.00 0.00 0.00 84 1012.0
20260508063031 41 297 0.0 1.0 0.00 0.00 0.00 84 1012.1
20260508062514 41 0 0.0 0.0 0.00 0.00 0.00 83 1012.0
20260508062012 41 0 0.0 0.0 0.00 0.00 0.00 84 1012.0
20260508061534 41 0 0.0 0.0 0.00 0.00 0.00 84 1012.1
20260508061013 41 0 0.0 0.0 0.00 0.00 0.00 84 1012.3
20260508060514 41 0 0.0 0.0 0.00 0.00 0.00 82 1012.3
20260508060035 41 0 0.0 0.0 0.00 0.00 0.00 82 1012.2
20260508055513 41 0 0.0 1.0 0.00 0.00 0.00 82 1012.3
20260508055016 41 0 0.0 1.0 0.00 0.00 0.00 82 1012.3
20260508054541 41 0 0.0 1.0 0.00 0.00 0.00 83 1012.3
20260508054014 41 0 0.0 1.0 0.00 0.00 0.00 83 1012.3
20260508053515 41 0 0.0 1.0 0.00 0.00 0.00 82 1012.5
20260508053029 41 0 0.0 2.0 0.00 0.00 0.00 82 1012.5
20260508052515 41 316 0.0 2.0 0.00 0.00 0.00 83 1012.5
20260508052012 41 316 0.0 2.0 0.00 0.00 0.00 82 1012.5
20260508051529 41 0 0.0 5.0 0.00 0.00 0.00 82 1012.5
20260508051014 41 278 0.0 5.0 0.00 0.00 0.00 81 1012.7
20260508050514 41 266 1.0 4.0 0.00 0.00 0.00 76 1012.7
20260508050032 41 0 0.0 2.0 0.00 0.00 0.00 81 1012.6
20260508045513 41 0 0.0 2.0 0.00 0.00 0.00 79 1012.5